Temp
13 12 11 11 11 11 10 10 10 10 9 9 9 9 9 9 9 9 9 9 9 8 8 8 8 8 8 8 8 8 8 8 7 7 7 7 7 7 7 7 7 7 7 7 7 7 7 7 7 7 7 7 7 7 7 7 7 7 7 8 8 8 8 8 8 8 8 8 8
11 11 11 11 11 10 10 9 9 9 9 9 9 9 9 9 8 8 8 8 8 8 8 8 8 8 8 8 7 7 7 7 7 7 7 7 7 7 7 7 7 7 6 6 6 6 6 6 7 7 7 7 7 7 7 7 7 7 7 7 7 8 8 8 8 8 8 8 8
10 10 11 10 10 10 9 9 9 9 9 9 8 8 8 8 8 8 8 8 8 8 8 8 7 7 7 7 7 7 7 7 7 7 7 7 7 7 7 7 7 7 7 6 6 6 6 6 6 6 6 6 7 7 7 7 7 7 7 7 7 7 8 8 8 8 8 8 8
10 10 10 10 9 9 9 9 8 8 9 8 8 8 8 8 8 8 8 8 8 8 7 7 7 7 7 7 6 6 6 6 6 6 6 6 6 6 6 6 6 6 6 6 6 6 6 6 6 6 6 6 6 6 6 6 7 7 7 7 7 7 7 7 8 8 8 8 8
10 10 9 9 9 9 9 8 8 9 8 8 8 8 8 8 7 7 7 7 7 7 7 7 7 7 6 6 6 6 6 6 6 6 6 6 6 6 6 6 6 6 6 6 6 6 6 6 6 6 6 6 6 6 6 6 6 6 7 7 7 7 7 7 7 7 8 8 8
9 9 9 8 9 8 8 8 8 8 8 8 7 7 7 7 7 7 7 7 7 7 7 7 7 6 6 6 6 6 6 6 6 6 6 6 6 6 6 6 6 6 6 5 5 5 5 5 5 5 5 5 6 6 6 6 6 6 6 6 6 6 7 7 7 7 7 7 8
8 8 8 8 8 8 8 8 7 7 7 7 7 7 7 7 7 7 7 7 7 7 7 6 6 6 6 6 6 6 6 6 6 6 5 5 5 5 5 5 5 5 5 5 5 5 5 5 5 5 5 5 5 5 5 5 6 6 6 6 6 6 6 6 6 7 7 7 7
8 8 8 8 8 7 7 7 7 7 7 7 7 7 7 7 7 7 7 7 7 6 6 6 6 6 6 6 6 6 5 5 5 5 5 5 5 5 5 5 5 5 5 5 5 5 5 5 5 5 5 5 5 5 5 5 5 5 5 6 6 6 6 6 6 6 6 6 6
8 8 8 8 7 7 7 7 7 7 7 7 7 7 7 7 7 6 6 6 6 6 6 6 6 6 5 5 5 5 5 5 5 5 5 5 5 5 5 5 5 5 5 5 5 5 5 5 5 5 5 5 5 5 5 5 5 5 5 5 5 5 5 6 6 6 6 6 6
8 8 8 7 7 7 7 7 7 7 7 7 7 7 7 6 6 6 6 6 6 6 6 6 5 5 5 5 5 5 5 5 5 5 5 5 5 5 5 5 5 5 5 5 5 5 5 5 5 5 5 5 5 5 5 5 5 5 5 5 5 5 5 5 5 5 5 5 6
8 8 8 7 7 7 7 7 7 7 7 7 7 7 7 6 6 6 6 6 6 6 6 6 5 5 5 5 5 5 5 5 5 5 5 5 5 5 5 5 5 5 5 5 5 5 5 5 5 5 5 5 5 5 5 5 5 5 5 5 5 5 5 5 5 5 5 5 5
8 8 8 7 7 7 7 7 7 7 7 7 7 7 6 6 6 6 6 6 6 6 6 6 6 5 5 5 5 5 5 5 5 5 5 5 5 5 5 5 5 5 5 5 5 5 5 5 4 4 4 4 4 4 4 4 4 4 4 4 4 4 4 5 5 5 5 5 5
8 8 8 7 7 7 7 7 7 7 7 7 6 6 6 6 6 6 6 6 6 6 6 6 6 6 6 5 5 5 5 5 5 5 5 5 5 5 5 5 5 5 5 5 4 4 4 4 4 4 4 4 4 4 4 4 4 4 4 4 4 4 4 4 4 4 5 5 5
8 8 7 7 7 7 7 7 7 7 7 6 6 6 6 6 6 6 6 6 6 6 6 6 6 6 5 5 5 5 5 5 5 5 5 5 5 5 4 4 4 4 4 4 4 4 4 4 4 4 4 4 4 4 4 4 4 4 4 4 4 4 4 4 4 4 4 4 4
8 7 7 7 7 7 7 7 6 6 6 6 6 6 6 6 6 6 6 6 6 6 5 5 5 5 5 5 5 5 5 5 4 4 4 4 4 4 4 4 4 4 4 4 4 4 4 4 4 4 4 4 4 4 4 4 3 3 3 3 4 4 4 4 4 4 4 4 4
7 7 7 7 7 7 6 6 6 6 6 6 6 6 6 6 6 6 6 5 5 5 5 5 5 5 5 5 4 4 4 4 4 4 4 4 4 4 4 4 4 4 4 4 4 4 4 4 3 3 3 3 3 3 3 3 3 3 3 3 3 3 3 3 3 3 3 3 4
7 7 7 7 7 7 6 6 6 6 6 6 6 6 6 6 6 6 5 5 5 5 5 5 5 4 4 4 4 4 4 4 4 4 4 4 4 4 4 4 4 4 4 4 4 4 4 4 3 3 3 3 3 3 3 3 3 3 3 3 3 3 3 3 3 3 3 3 3
7 7 7 7 7 6 6 6 6 6 6 6 6 6 6 6 6 5 5 5 5 5 5 4 4 4 4 4 4 3 3 3 3 3 3 3 3 3 3 3 3 3 3 3 3 3 3 3 3 3 3 3 3 3 3 3 3 3 3 3 2 2 2 2 2 2 2 2 2
7 7 7 7 7 7 6 6 6 6 6 6 6 6 6 5 5 5 5 5 5 4 4 4 4 4 4 3 3 3 3 3 3 3 3 3 3 3 3 3 3 3 3 3 3 3 3 3 3 3 3 3 3 3 2 2 2 2 2 2 2 2 2 1 1 1 1 1 1
7 7 7 7 7 7 6 6 6 6 6 6 6 5 5 5 5 5 5 5 5 4 4 4 4 4 3 3 3 3 3 3 3 3 3 3 3 3 3 3 3 3 3 3 3 3 3 3 3 2 2 2 2 2 2 2 2 2 2 2 1 1 1 1 0 0 0 0 -0
7 7 7 7 7 7 6 6 6 6 6 6 5 5 5 5 5 5 4 4 4 4 4 4 4 4 3 3 3 3 3 3 3 3 3 2 2 2 2 2 2 2 2 2 2 2 2 2 2 2 2 2 2 2 2 2 2 2 1 1 1 0 0 -0 -0 -1 -1 -1 -1
7 7 7 7 7 6 6 6 6 6 5 5 5 5 5 5 4 4 4 4 4 4 4 4 4 4 3 3 3 3 3 3 2 2 2 2 2 2 2 2 2 2 2 2 2 2 2 2 2 2 2 2 2 2 2 2 1 1 0 0 -0 -1 -1 -1 -1 -1 -1 -1 -1
7 7 7 7 6 6 6 6 6 5 5 5 5 5 5 4 4 4 4 4 4 4 4 4 4 3 3 3 3 3 2 2 2 2 2 2 2 2 2 2 2 2 2 2 2 2 2 2 2 2 2 2 2 2 2 1 1 0 -0 -1 -1 -1 -1 -2 -2 -2 -1 -1 -1
7 7 6 6 6 6 6 6 5 5 5 5 5 5 5 5 4 4 4 4 4 4 4 3 3 3 3 3 2 2 2 2 2 2 2 2 2 2 2 2 2 2 2 2 2 2 2 2 2 2 2 2 1 1 1 0 -0 -1 -1 -1 -2 -2 -2 -2 -2 -2 -2 -2 -2
6 6 6 6 6 6 6 5 5 5 5 5 5 5 5 5 5 4 4 4 4 4 3 3 3 3 3 2 2 2 2 2 2 2 2 2 2 2 2 2 2 2 2 2 2 1 1 1 1 1 1 1 0 0 -0 -1 -1 -2 -2 -2 -2 -2 -2 -2 -2 -2 -2 -2 -2
6 6 6 6 6 5 5 5 5 5 5 5 5 5 5 5 5 4 4 4 4 3 3 3 3 2 2 2 2 2 2 2 2 2 2 2 2 2 2 2 2 2 2 2 1 1 1 1 1 0 0 -0 -1 -1 -1 -2 -2 -2 -2 -3 -3 -3 -3 -3 -3 -2 -2 -2 -2
6 6 6 5 5 5 5 5 5 5 5 5 5 5 5 5 4 4 4 4 3 3 3 3 3 2 2 2 2 2 2 2 2 2 2 2 2 2 2 2 2 2 2 1 1 1 1 1 0 -0 -1 -1 -1 -2 -2 -2 -2 -3 -3 -3 -3 -3 -3 -3 -3 -2 -2 -2 -2
5 5 5 5 5 5 5 5 5 5 5 5 5 5 4 4 4 4 4 4 3 3 3 3 3 2 2 2 2 2 2 2 2 2 2 2 2 2 2 2 2 2 1 1 1 1 1 0 0 -0 -1 -2 -2 -2 -2 -2 -3 -3 -3 -3 -3 -3 -3 -3 -3 -2 -2 -2 -2
5 5 5 5 5 5 5 5 5 5 5 4 4 4 4 4 4 4 4 3 3 3 3 3 3 3 3 3 3 2 2 2 2 2 2 2 2 2 2 2 2 2 1 1 1 1 0 -0 -1 -1 -2 -2 -2 -2 -3 -3 -3 -3 -3 -3 -3 -3 -3 -3 -3 -2 -2 -2 -2
5 5 5 5 5 5 5 5 5 4 4 4 4 4 4 4 4 3 3 3 3 3 3 3 3 3 3 3 2 2 2 2 2 2 2 2 2 2 2 2 2 1 1 1 1 0 -0 -1 -1 -2 -2 -3 -3 -3 -3 -3 -3 -3 -3 -3 -3 -3 -3 -3 -2 -2 -2 -2 -2
5 5 5 5 5 5 5 4 4 4 4 4 4 4 4 4 3 3 3 3 3 3 3 3 3 3 3 2 2 2 2 2 2 2 2 2 2 2 2 1 1 1 1 1 0 -1 -1 -2 -2 -2 -3 -3 -3 -3 -3 -3 -3 -3 -3 -3 -3 -3 -3 -3 -2 -2 -2 -2 -2
5 5 5 5 5 5 4 4 4 4 4 3 3 3 3 3 3 3 3 3 3 3 3 3 3 3 2 3 3 3 2 2 2 2 2 2 2 1 1 1 1 1 0 -0 -1 -1 -2 -2 -3 -3 -3 -3 -3 -3 -3 -3 -3 -3 -3 -3 -3 -3 -3 -3 -3 -2 -2 -2 -2
5 5 5 5 5 4 4 4 4 4 3 3 3 3 3 3 3 3 3 3 3 3 3 3 3 2 2 2 2 2 2 2 2 2 1 1 1 1 1 1 0 0 -0 -1 -2 -2 -3 -3 -3 -3 -3 -3 -3 -3 -3 -3 -3 -3 -3 -3 -3 -3 -3 -3 -3 -2 -2 -2 -2
5 5 5 5 4 4 4 4 4 4 4 3 3 3 3 3 3 3 3 3 3 3 2 2 2 2 2 2 2 2 2 2 1 1 1 1 1 1 0 0 -0 -1 -1 -2 -2 -3 -3 -3 -3 -3 -3 -3 -3 -3 -3 -3 -3 -3 -3 -3 -3 -3 -3 -3 -2 -2 -2 -2 -2
5 5 5 4 4 4 4 4 4 4 4 4 3 3 3 3 3 3 3 3 2 2 2 2 2 2 2 2 2 2 2 1 1 1 1 0 0 0 -0 -1 -1 -1 -2 -2 -3 -3 -3 -3 -3 -3 -3 -3 -3 -3 -3 -3 -3 -3 -3 -3 -3 -3 -3 -2 -2 -2 -2 -2 -2
5 5 4 4 4 4 4 4 4 4 4 3 3 3 3 3 3 3 3 2 2 2 2 2 2 2 2 2 2 1 1 1 1 1 0 0 -0 -1 -1 -1 -2 -2 -2 -3 -3 -3 -3 -3 -3 -3 -3 -3 -3 -3 -3 -3 -3 -3 -3 -3 -3 -2 -2 -2 -2 -2 -2 -2 -2
5 5 4 4 4 4 4 4 4 4 3 3 3 3 3 3 3 3 2 2 2 2 2 2 2 2 2 2 1 1 1 1 1 0 -0 -0 -1 -1 -2 -2 -2 -3 -3 -3 -3 -3 -3 -3 -3 -3 -3 -3 -3 -3 -3 -3 -3 -3 -3 -2 -2 -2 -2 -2 -2 -2 -2 -2 -2
5 5 4 4 4 4 4 4 4 3 3 3 3 3 3 3 2 2 2 2 2 2 2 2 2 2 1 1 1 1 1 0 0 -0 -1 -1 -1 -2 -2 -2 -3 -3 -3 -3 -3 -3 -3 -3 -3 -3 -3 -3 -3 -3 -3 -3 -3 -3 -2 -2 -2 -2 -2 -2 -2 -2 -1 -1 -1
5 5 5 4 4 4 4 4 4 3 3 3 3 3 2 2 2 2 2 2 2 2 2 2 1 1 1 1 1 1 0 0 -0 -0 -1 -1 -2 -2 -3 -3 -3 -3 -3 -3 -3 -3 -3 -3 -3 -3 -3 -3 -3 -3 -3 -3 -3 -2 -2 -2 -2 -2 -2 -2 -1 -1 -1 -1 -1
5 5 4 4 4 4 4 4 3 3 3 3 2 2 2 2 2 2 2 2 2 1 1 1 1 1 1 1 1 0 0 -0 -0 -1 -1 -2 -2 -3 -3 -3 -3 -3 -3 -3 -3 -3 -3 -3 -3 -2 -2 -2 -3 -3 -3 -3 -3 -2 -2 -2 -2 -2 -1 -1 -1 -1 -1 -1 -1
5 4 4 4 4 4 4 3 3 3 3 2 2 2 2 2 2 2 2 2 1 1 1 1 1 1 1 0 0 0 -0 -0 -1 -1 -2 -2 -3 -3 -3 -3 -3 -3 -3 -3 -2 -2 -2 -2 -2 -2 -2 -2 -2 -3 -3 -3 -3 -2 -2 -2 -2 -1 -1 -1 -1 -1 -1 -1 -1
Height
768 768 768 769 770 771 772 773 774 775 776 776 777 778 778 779 780 781 782 782 783 783 784 784 784 784 784 784 784 784 783 783 782 782 781 781 780 780 779 779 778 778 777 777 776 776 776 775 775 774 773 772 772 771 770 770 769 769 768 767 766 766 765 764 763 763 762 762 761
766 766 767 768 770 771 772 773 773 774 776 776 777 778 779 779 780 781 781 782 782 782 783 783 783 783 783 783 783 782 782 781 781 781 780 779 779 778 778 777 777 776 776 776 775 775 774 774 773 772 771 771 770 769 768 768 768 767 766 766 765 764 763 762 761 761 760 760 759
765 766 767 768 770 771 771 772 773 774 775 776 777 778 778 779 780 780 781 781 781 782 782 782 782 782 782 782 781 781 781 780 780 779 778 778 777 777 776 776 776 775 775 774 774 773 773 772 771 771 770 769 768 767 766 766 766 765 764 763 763 762 761 760 759 758 758 757 756
765 766 767 768 769 771 771 772 773 774 775 776 777 777 778 779 779 780 780 781 781 781 781 781 781 781 781 780 780 780 779 779 778 777 777 776 776 775 775 775 774 773 773 772 772 771 771 771 770 769 768 767 766 766 765 764 764 763 762 761 761 760 759 758 757 756 756 755 755
765 766 767 768 769 770 771 772 773 774 775 776 776 777 778 778 779 779 780 780 780 780 780 780 780 780 779 779 778 778 777 777 776 776 776 775 774 774 773 773 772 772 771 771 770 770 769 769 768 767 766 765 764 764 763 762 762 761 760 760 759 758 757 756 756 755 754 753 752
764 766 766 768 769 770 771 772 773 774 774 775 776 777 777 778 778 779 779 779 779 779 779 779 779 778 778 777 777 776 776 776 775 775 774 773 773 772 772 771 771 770 770 769 768 768 767 767 766 765 764 763 762 761 761 761 760 759 758 758 757 756 756 755 754 753 752 751 751
764 765 766 767 768 769 770 771 772 773 774 775 776 776 777 777 778 778 778 778 778 778 778 778 777 777 776 776 776 775 775 774 773 773 772 772 771 771 770 769 769 768 768 767 766 766 766 765 764 763 762 761 760 759 759 759 758 757 756 756 755 754 754 753 752 752 751 750 750
764 765 766 767 768 769 770 771 772 773 774 775 776 776 776 777 777 777 777 777 777 777 776 776 776 776 775 775 774 774 773 772 772 771 771 770 770 769 768 767 767 766 766 765 765 764 763 763 762 761 760 759 758 757 756 756 756 755 754 754 753 752 752 751 751 750 750 749 748
764 765 765 766 767 768 770 771 772 773 774 775 775 776 776 776 776 776 776 776 776 775 775 775 774 774 774 773 773 772 771 771 770 770 769 768 768 767 766 766 765 764 764 763 763 762 761 761 760 759 758 757 756 755 755 755 754 753 753 752 751 751 750 750 749 749 748 748 747
763 764 765 766 767 768 769 771 771 773 773 774 774 775 775 775 775 774 774 774 774 774 773 773 773 772 772 771 771 771 770 769 769 768 767 766 766 765 765 764 763 762 761 761 761 760 759 759 758 757 756 755 754 753 753 753 752 751 751 750 750 749 748 748 748 747 747 746 746
762 763 764 765 766 767 769 770 771 772 773 773 773 773 773 773 773 773 773 773 772 772 772 771 771 771 771 770 770 769 768 768 767 766 766 765 764 763 763 762 761 761 760 759 759 758 757 756 756 755 754 753 753 752 751 751 750 750 749 748 748 747 747 746 746 746 745 744 744
761 762 763 764 766 767 768 770 770 771 771 771 772 772 772 772 772 771 771 771 771 771 771 770 770 770 769 769 768 768 767 766 766 765 764 763 762 761 761 760 759 758 758 757 757 756 756 755 754 753 752 751 751 750 749 749 748 748 747 746 746 746 745 744 744 744 743 742 742
760 761 762 764 765 766 767 768 769 770 770 770 770 771 771 770 770 770 770 770 770 769 769 769 769 768 768 767 767 766 766 765 764 763 762 761 761 760 759 758 757 756 756 755 755 754 753 752 752 751 750 749 749 748 747 747 746 746 745 745 744 744 743 742 742 742 741 741 740
759 761 762 763 765 766 766 767 768 768 769 769 769 769 769 769 769 769 769 769 768 768 768 767 767 767 766 766 765 765 764 763 762 761 761 760 759 758 757 756 755 755 754 753 752 752 751 751 750 749 748 747 746 746 746 745 745 744 743 743 742 741 741 740 740 740 739 738 737
759 761 762 763 764 765 766 766 767 767 767 767 767 768 768 768 767 767 767 767 767 767 766 766 766 766 765 765 764 763 762 762 761 760 759 758 757 756 755 754 753 752 752 751 750 750 749 748 747 747 746 745 744 744 743 743 742 742 741 741 740 739 739 738 738 737 737 736 735
759 760 761 762 763 764 765 765 766 766 766 766 766 766 766 766 766 766 766 766 766 766 765 765 765 764 763 763 762 762 761 760 759 758 757 756 755 754 753 752 751 750 750 749 748 747 746 746 745 745 744 743 742 742 741 741 740 740 739 738 738 737 736 736 736 735 734 734 733
759 760 761 761 762 763 764 764 764 765 765 765 765 765 765 766 765 765 765 765 765 764 764 763 763 762 762 761 761 760 759 758 757 756 755 754 753 752 751 750 749 748 747 746 746 745 744 743 743 742 741 741 740 740 739 738 738 737 736 736 735 735 734 734 733 733 732 732 731
759 759 760 761 761 762 762 763 763 763 764 764 764 764 764 764 764 764 764 764 763 763 762 762 761 761 760 760 759 758 757 756 755 754 753 752 751 750 749 748 747 746 746 745 744 743 742 741 740 740 739 739 738 737 736 736 735 735 734 733 733 732 732 731 731 731 730 730 729
758 759 759 760 761 761 761 762 762 762 762 763 763 763 763 763 763 763 762 762 762 761 761 760 760 759 758 758 757 756 755 754 753 752 751 750 749 748 747 746 745 744 743 742 741 741 740 739 738 738 737 736 736 735 734 734 733 732 731 731 731 730 730 729 729 729 728 728 727
757 758 758 759 759 760 760 761 761 761 761 762 762 762 762 762 762 761 761 761 760 760 759 759 758 757 756 756 755 754 753 752 751 750 749 748 747 746 745 744 743 742 741 740 739 738 737 736 736 735 735 734 733 732 731 731 730 729 729 728 728 728 727 727 727 727 726 726 725
756 757 758 758 759 759 759 760 760 761 761 761 761 761 761 761 760 760 759 759 759 758 758 757 756 756 755 754 753 752 751 750 749 748 746 746 745 743 742 741 741 740 739 738 737 736 735 734 734 733 732 731 731 730 729 728 727 727 726 726 726 726 726 726 725 725 724 723 722
756 756 757 757 758 758 759 759 759 760 760 760 760 760 759 759 759 758 758 757 757 756 756 755 754 754 753 752 751 750 749 748 747 746 745 743 742 741 740 739 738 737 736 735 734 733 733 732 731 731 730 729 728 727 726 726 725 725 725 724 724 724 724 723 723 722 721 720 719
755 756 756 757 757 758 758 759 759 759 759 759 758 758 758 757 757 756 756 756 755 755 754 753 752 751 751 750 749 748 746 746 744 743 742 741 740 739 738 737 736 735 734 733 732 731 730 729 729 728 727 726 725 724 724 724 723 723 723 722 722 722 721 721 720 719 718 717 716
755 755 756 756 757 757 758 758 758 758 758 757 757 757 756 756 755 755 754 754 753 753 752 751 751 750 749 748 747 746 744 743 741 741 739 738 737 736 735 734 733 732 731 730 729 728 728 727 726 726 725 724 723 722 722 722 721 721 721 721 720 719 718 717 717 716 715 714 713
754 755 755 756 756 757 757 757 757 757 756 756 756 755 755 754 754 753 753 752 751 751 750 749 748 747 746 745 744 743 742 741 739 738 736 736 735 734 733 732 731 729 728 727 726 726 726 725 725 724 723 722 721 721 721 720 720 720 719 718 718 716 716 714 713 712 711 711 710
754 754 755 756 756 756 756 756 756 756 756 755 755 754 753 753 752 751 751 750 749 749 748 747 746 745 744 743 742 741 739 738 737 736 734 733 732 731 730 729 728 727 726 725 724 723 723 723 722 722 721 721 720 719 718 718 717 717 717 716 715 714 712 711 710 709 708 707 706
754 754 755 755 755 755 755 755 755 755 754 754 753 753 752 751 751 750 749 748 747 747 746 745 744 743 742 741 739 738 737 736 734 733 732 731 730 728 727 726 726 724 723 722 721 721 721 721 720 720 719 719 718 717 716 716 715 714 714 713 712 711 710 708 707 706 705 704 703
753 754 754 754 754 754 754 754 754 753 753 752 752 751 751 750 749 748 747 746 746 745 744 743 742 741 740 738 737 736 734 733 732 731 730 728 727 726 725 724 723 722 721 720 719 719 719 718 718 717 717 716 716 715 714 713 712 711 711 710 709 708 706 705 704 703 701 701 700
753 753 753 753 753 753 753 753 753 752 752 751 751 750 749 748 747 746 746 745 744 743 742 741 740 739 737 736 735 733 732 731 730 728 727 726 725 723 722 721 720 719 718 718 717 717 716 716 715 715 715 714 714 713 712 711 710 709 708 707 706 705 704 702 701 700 699 698 697
752 752 752 752 752 752 752 752 751 751 751 750 749 748 748 747 746 745 744 743 742 741 740 739 738 736 735 734 732 731 730 728 727 726 725 723 722 721 720 719 718 717 716 716 715 714 714 713 713 712 712 712 712 711 710 708 707 706 705 704 703 702 701 700 698 697 696 695 694
751 751 751 751 751 751 751 751 750 750 749 749 748 747 746 745 744 743 742 741 740 739 738 737 736 734 733 732 731 729 727 726 725 724 722 721 720 719 718 717 716 715 714 713 713 712 711 711 711 710 710 710 709 708 707 706 705 703 702 701 700 699 698 696 695 694 693 692 691
750 750 750 750 750 750 750 749 749 748 748 747 746 745 744 743 742 741 740 739 738 737 736 735 734 732 731 730 728 727 725 724 723 721 721 720 718 717 716 715 714 713 712 711 711 710 710 709 709 708 707 707 706 705 704 703 701 700 699 697 696 696 695 693 692 691 690 689 688
749 749 749 749 749 748 748 748 747 747 746 746 745 744 742 741 741 740 739 737 736 735 734 733 731 730 729 727 726 724 723 722 721 720 719 718 716 715 714 713 712 711 710 709 709 708 707 707 706 705 705 704 703 702 701 700 698 697 696 694 693 692 691 690 689 688 686 686 685
748 748 748 748 748 747 747 747 746 746 745 744 743 742 741 740 739 738 737 736 735 733 732 731 730 728 727 726 724 722 721 720 719 718 717 716 715 713 712 711 710 709 708 708 707 706 705 704 703 702 702 701 700 699 697 696 695 693 692 691 690 689 688 686 686 684 683 682 681
747 747 747 747 746 746 746 745 745 744 743 742 741 740 739 738 737 736 735 734 733 731 730 729 728 726 725 723 722 721 719 718 717 716 715 714 713 712 711 709 708 707 706 706 705 704 703 702 701 700 699 698 697 696 694 693 691 690 689 688 686 685 684 683 682 681 680 679 678
746 746 746 746 746 745 744 744 743 742 741 740 739 738 738 736 736 734 733 732 731 730 728 727 726 724 723 721 720 719 718 716 715 714 713 712 711 710 709 708 706 705 704 703 702 701 700 699 698 697 696 696 694 693 691 690 689 687 686 685 683 682 681 680 678 677 676 675 674
745 745 745 745 744 743 743 742 741 740 739 739 738 737 736 735 734 733 731 731 729 728 726 725 724 722 721 720 718 717 716 715 714 712 711 711 710 709 707 706 704 703 702 701 700 699 698 696 696 695 694 693 691 690 689 687 686 684 683 681 680 679 677 676 675 673 672 671 670
744 744 744 743 742 742 741 741 740 739 738 737 736 735 734 733 732 731 730 729 728 726 725 723 721 720 719 718 716 715 714 713 712 711 710 709 708 707 706 704 702 701 700 698 697 696 695 694 693 692 691 691 689 687 686 685 683 681 680 679 677 675 674 673 671 670 668 667 666
743 743 742 742 741 740 740 739 738 737 736 736 735 734 733 732 731 730 729 728 726 725 723 721 720 718 717 716 715 713 712 711 710 710 708 707 706 706 704 703 701 699 697 696 695 694 692 691 690 690 689 688 686 685 684 682 681 679 677 676 674 672 671 670 668 666 665 663 662
742 741 741 741 740 739 738 737 737 736 735 735 734 733 731 731 730 728 727 726 725 723 721 720 718 716 715 714 713 711 710 709 708 708 707 706 705 704 702 701 699 697 695 694 692 691 690 689 688 687 686 685 684 683 681 680 678 676 675 673 671 670 668 666 665 664 662 661 659
741 741 740 739 739 738 737 736 736 735 734 733 732 731 731 729 728 727 726 724 723 721 720 718 716 715 714 713 711 710 708 707 707 706 706 704 703 702 700 699 697 695 693 691 690 689 688 686 686 685 684 683 682 681 679 678 676 674 672 671 669 667 666 664 662 661 660 658 657
Wind_Speed
12 9 8 9 8 8 6 6 7 6 5 4 3 3 3 3 4 4 5 6 6 7 8 8 9 10 10 11 11 12 13 13 14 15 16 16 17 18 18 18 18 18 19 19 19 20 20 20 20 20 21 21 21 22 22 22 22 23 23 24 25 26 27 28 28 29 29 29 30
10 10 10 11 11 9 8 7 8 8 7 5 4 4 4 4 4 5 5 6 7 7 8 9 9 10 11 12 12 13 13 14 15 16 17 17 18 18 18 18 18 18 19 19 19 19 19 20 20 20 21 21 21 22 22 22 22 23 24 25 25 26 26 27 27 28 28 29 29
11 11 12 11 10 9 7 7 7 7 7 5 5 4 4 4 5 5 6 6 7 8 8 9 10 11 11 12 12 13 14 15 16 17 17 18 18 18 18 18 19 19 19 19 19 20 20 20 20 21 21 21 22 22 22 23 23 23 24 25 25 25 25 26 26 27 27 27 28
12 11 10 10 9 9 8 7 7 7 6 6 5 5 4 5 5 6 6 7 7 8 9 10 11 11 11 11 13 14 15 15 16 17 17 18 18 18 18 19 19 19 20 20 20 20 21 21 21 21 22 22 22 23 23 23 23 24 24 25 25 25 25 26 26 26 26 26 27
12 11 10 10 9 9 8 7 7 7 6 6 5 5 5 5 6 6 6 7 8 10 11 12 11 11 11 12 13 15 15 16 16 17 17 18 18 18 18 19 19 20 20 20 21 21 21 22 22 22 22 22 22 23 23 23 23 24 25 25 25 25 25 26 26 26 26 26 27
11 11 11 10 10 9 8 7 7 7 6 5 5 5 5 6 6 6 7 9 11 12 12 11 11 11 12 13 14 15 15 16 16 17 17 18 18 19 19 20 20 20 21 21 21 22 22 22 22 22 22 22 22 23 23 23 24 24 25 25 25 25 25 26 26 26 26 27 27
11 11 11 11 10 9 8 7 7 6 6 5 5 6 7 6 7 7 8 9 10 11 11 11 11 12 13 13 14 15 15 16 16 17 18 18 19 19 20 20 21 21 21 22 22 22 22 22 22 22 22 22 22 22 23 23 23 24 25 25 25 25 25 25 25 26 26 27 28
11 11 11 10 10 9 8 7 6 6 5 6 6 7 7 7 7 8 9 10 10 11 11 11 12 13 14 14 15 16 16 17 18 18 18 19 20 20 21 21 22 22 23 23 23 23 23 23 22 22 22 22 22 22 23 23 24 24 25 25 25 25 25 25 25 25 26 27 28
11 11 11 10 10 9 8 7 6 6 6 6 7 7 7 8 9 9 10 10 11 11 12 12 13 14 15 15 16 17 17 18 18 19 19 20 20 21 21 22 22 23 23 23 23 23 23 23 23 23 23 23 23 23 24 24 24 25 25 26 26 26 26 26 26 26 27 28 29
12 12 11 10 10 9 8 7 6 7 7 7 8 8 9 10 10 10 10 11 11 12 12 13 14 15 15 16 17 17 18 18 19 19 20 20 21 21 22 22 22 23 23 23 23 23 23 23 24 24 24 24 25 25 26 26 26 26 27 26 26 27 27 27 27 28 28 29 29
13 12 11 10 9 8 8 7 7 7 7 8 10 10 11 11 11 11 11 11 11 12 13 14 14 15 16 16 17 18 18 18 19 19 20 21 22 22 23 23 24 24 24 24 24 24 24 24 24 25 25 26 26 27 27 27 27 28 28 28 28 29 29 29 29 29 30 30 31
13 12 11 9 9 9 8 7 7 8 9 10 10 11 11 12 12 12 12 12 12 13 14 15 15 16 17 17 18 18 19 19 20 21 21 22 22 23 24 24 25 25 26 26 25 25 24 25 25 26 27 27 27 27 27 27 28 28 29 29 29 30 30 31 31 31 30 31 31
12 11 10 9 9 8 7 7 8 9 10 10 11 11 11 12 12 12 12 12 13 14 15 15 16 16 17 18 18 19 20 20 21 22 22 23 23 24 24 25 25 26 26 26 26 26 25 26 26 27 28 28 28 28 28 28 28 29 29 30 30 30 31 31 32 32 32 32 32
11 11 10 9 8 7 7 8 9 9 10 10 11 11 12 12 12 12 12 13 13 14 15 16 16 17 17 18 19 20 20 21 22 23 23 24 24 25 26 26 26 27 27 27 26 26 26 27 27 28 28 29 29 29 29 29 29 30 30 30 31 31 31 32 32 32 32 33 33
11 10 9 8 7 7 8 8 9 10 10 11 11 11 11 12 12 12 12 13 14 15 15 16 17 17 18 19 19 20 21 22 23 23 24 25 26 26 26 27 27 27 27 27 27 27 27 28 28 29 29 30 30 30 30 30 30 31 31 31 32 32 32 32 32 33 33 33 33
10 8 7 7 7 8 8 9 9 9 10 11 11 11 11 12 12 12 12 13 14 15 16 16 17 18 19 19 20 21 21 22 23 24 24 25 26 26 26 27 27 27 27 28 28 28 28 28 29 29 30 30 30 31 31 31 31 32 32 32 32 33 33 33 33 33 33 34 34
8 7 7 8 8 9 9 9 10 10 10 11 11 11 11 12 12 12 13 14 14 15 16 17 18 19 19 20 20 21 21 22 23 23 24 25 25 26 26 27 27 27 28 28 28 28 29 29 29 29 30 30 31 31 31 31 32 32 33 33 33 34 34 34 34 34 34 34 34
7 7 8 8 9 10 10 10 10 10 11 11 11 11 11 12 12 13 14 15 15 16 17 18 19 20 20 21 21 21 22 22 23 24 25 25 26 27 27 27 28 28 28 28 28 29 29 29 29 30 30 30 30 31 31 32 32 33 33 34 34 34 34 34 34 34 33 33 33
7 7 8 9 10 10 10 10 11 11 11 11 11 11 12 12 13 14 15 16 16 17 18 19 20 20 21 22 22 22 23 23 24 25 26 26 27 27 28 28 28 28 28 28 29 29 29 29 29 30 30 30 30 31 31 32 32 33 33 33 33 33 33 32 32 32 32 32 32
7 8 9 10 10 10 10 10 11 11 11 11 11 12 12 13 14 15 16 17 17 18 19 20 20 21 22 22 23 23 24 24 25 26 26 27 27 27 28 28 28 29 29 29 29 29 29 29 29 29 30 30 30 31 31 32 32 32 32 32 31 30 30 30 31 31 32 32 33
8 9 9 10 10 10 10 10 10 11 11 11 12 12 13 14 15 16 17 17 18 18 19 20 21 22 23 23 24 24 25 25 25 26 26 27 27 28 28 28 28 28 28 28 29 29 29 29 29 29 29 29 30 30 31 31 31 31 30 29 28 29 29 30 30 31 32 32 33
9 9 10 10 10 10 10 10 10 11 11 11 12 13 14 14 15 16 17 18 18 19 20 21 22 22 23 24 24 25 25 26 26 26 27 27 27 28 28 28 28 28 28 28 28 28 29 29 29 29 29 29 30 30 30 29 28 27 26 27 27 28 29 30 30 31 31 32 32
9 9 9 9 9 9 10 10 11 11 11 12 13 14 14 15 16 16 17 18 18 19 20 21 22 23 23 24 25 26 26 27 27 27 27 27 28 28 28 28 28 28 28 28 28 28 28 28 28 28 28 28 28 28 27 26 25 24 25 26 27 28 29 29 30 30 30 31 31
9 9 9 9 9 10 10 10 11 11 12 13 14 14 15 15 16 17 18 18 19 20 21 22 23 23 24 25 25 26 27 27 28 28 28 28 28 28 28 28 28 28 28 27 27 27 26 26 26 26 26 26 26 26 25 24 24 25 26 27 28 29 29 29 30 30 30 30 31
9 9 9 9 10 10 11 11 11 12 12 13 14 15 16 16 17 17 18 19 20 21 22 23 23 24 25 25 26 26 27 27 28 28 28 28 28 28 27 27 27 26 26 26 26 26 26 26 26 25 25 25 25 25 25 25 26 26 27 27 28 29 29 29 30 30 30 31 31
9 9 9 10 10 10 11 11 11 12 13 14 15 16 16 17 18 18 19 20 21 21 22 23 24 24 25 25 26 26 26 27 27 27 27 27 27 27 27 26 26 26 26 26 26 27 27 27 26 25 24 24 24 24 25 26 26 27 27 27 28 28 29 29 29 30 30 30 31
9 9 10 10 10 11 11 11 12 13 14 15 16 16 17 18 18 19 20 21 21 22 22 23 23 24 24 24 25 25 26 26 26 26 27 27 27 27 27 27 27 26 26 26 27 27 27 27 26 25 24 23 24 24 24 25 27 27 27 27 28 28 29 29 30 30 31 31 30
10 10 10 11 11 11 11 12 13 14 15 15 16 17 18 18 19 20 21 22 22 22 22 22 23 22 22 23 24 24 25 26 26 27 27 27 28 28 28 28 27 27 27 27 28 28 27 26 26 25 24 24 24 26 27 27 27 27 27 27 27 27 28 29 29 29 30 30 30
10 10 11 11 11 11 12 12 13 14 15 16 16 17 18 19 20 21 21 22 22 22 23 23 22 22 23 24 25 25 26 27 27 27 27 28 28 28 28 28 28 28 28 28 28 28 27 26 26 26 26 27 26 27 27 27 27 26 26 26 26 26 27 28 28 28 29 29 29
11 11 11 11 11 11 12 13 13 14 15 16 17 18 19 20 20 21 22 22 22 23 23 23 23 24 24 25 26 27 27 27 27 27 27 28 28 28 28 28 28 28 28 28 27 27 27 27 27 27 28 28 27 28 27 27 27 26 26 26 27 27 28 28 29 29 29 29 29
11 11 11 11 11 12 12 13 13 14 15 16 17 18 19 20 21 22 22 22 23 23 24 24 24 25 26 26 27 27 28 28 28 28 27 28 28 28 28 28 28 28 28 27 27 27 27 28 28 28 28 28 28 27 27 27 27 27 27 27 28 28 29 29 29 30 30 30 30
12 11 11 11 11 12 12 13 13 14 16 17 18 19 20 21 22 22 23 23 23 24 24 24 25 26 26 27 27 27 28 28 28 27 27 27 28 28 28 28 28 27 27 27 27 27 28 28 28 28 29 29 28 28 28 28 28 28 29 29 29 30 30 30 30 30 31 31 31
11 11 11 11 11 12 12 13 14 16 17 18 19 20 21 21 22 22 23 23 23 23 24 24 25 26 26 27 27 27 28 28 28 27 27 27 27 27 28 27 27 26 26 26 27 28 28 28 29 29 30 30 30 30 30 29 28 28 28 28 29 29 30 31 31 31 32 32 32
10 10 11 11 12 12 13 14 16 17 18 19 20 21 21 22 22 23 23 23 23 23 24 24 25 26 26 26 27 27 27 27 27 27 27 27 27 27 27 27 26 26 26 27 28 29 29 29 29 30 30 30 30 30 29 29 28 28 28 28 29 29 30 30 31 32 32 32 32
10 10 11 11 12 13 14 15 17 18 19 20 20 21 21 22 22 23 23 23 23 24 24 25 25 26 26 27 27 27 27 27 27 27 26 26 26 26 27 27 27 27 28 28 29 29 29 30 30 30 30 30 29 29 28 28 27 27 28 28 28 29 30 30 31 31 31 32 32
9 9 10 11 13 14 15 17 18 19 20 20 20 21 21 22 22 23 23 23 23 24 25 25 26 26 26 26 26 26 26 26 26 26 26 25 26 26 27 27 28 28 28 29 29 29 30 30 30 30 30 29 28 27 26 26 25 25 26 27 27 28 29 29 30 30 31 31 31
9 10 11 13 14 15 16 17 18 19 20 21 21 21 22 22 22 23 23 23 23 24 25 25 26 26 26 26 26 26 26 26 26 26 26 25 25 26 26 27 28 28 29 29 29 29 30 30 30 30 30 28 27 26 26 25 24 24 24 25 26 27 27 28 28 29 29 30 30
11 12 14 15 16 16 17 18 19 20 20 21 21 21 22 22 22 22 22 22 23 24 25 26 26 26 26 26 26 26 26 26 25 25 25 25 25 25 26 27 28 29 29 29 29 30 30 30 30 30 30 28 27 26 25 24 24 24 24 24 25 25 26 26 26 27 27 28 29
13 14 15 16 16 17 18 19 19 20 20 20 21 21 21 22 22 22 22 22 23 24 25 26 26 26 26 26 26 26 26 25 24 24 24 24 25 25 26 27 28 29 29 29 30 30 30 30 30 30 30 29 27 25 24 23 23 23 24 24 24 24 25 25 25 25 26 27 28
13 14 15 15 16 17 18 19 19 20 20 20 20 21 21 22 22 22 23 23 23 24 25 25 26 26 26 26 26 26 26 25 24 24 24 25 26 26 27 27 28 29 29 29 30 30 30 30 30 30 29 28 26 25 24 23 23 23 23 23 23 23 23 23 23 23 24 25 26
13 14 15 16 17 17 18 19 19 19 19 20 20 21 21 21 22 22 23 23 24 24 25 25 26 26 26 26 25 25 25 25 25 25 25 26 26 26 26 27 27 28 28 28 29 29 29 29 29 29 29 28 27 25 24 23 22 23 23 23 22 21 21 22 22 22 23 24 24
Wind_Direction
216 197 183 182 185 182 180 186 192 189 182 182 190 198 202 210 227 239 247 252 256 261 264 266 270 273 276 279 282 284 286 287 288 289 290 290 290 290 289 289 287 286 285 285 284 284 283 282 281 280 279 278 277 276 275 275 274 274 274 273 273 273 272 272 271 270 270 269 269
178 177 188 199 203 203 199 196 200 201 201 201 202 206 211 215 226 237 244 248 252 257 262 266 269 273 276 279 281 284 286 287 289 290 290 289 289 288 288 287 286 284 283 282 282 282 281 281 280 279 278 277 277 276 275 274 274 273 273 272 272 272 272 271 270 270 269 269 268
180 195 206 207 205 199 189 186 193 198 201 202 200 201 207 218 231 239 245 249 254 258 263 267 271 273 276 279 281 283 285 287 288 289 289 289 288 288 287 286 286 284 283 282 282 281 280 280 279 278 277 277 276 275 275 275 274 273 273 273 272 272 271 271 270 270 269 268 267
198 203 203 199 191 186 183 178 181 185 188 189 188 194 207 223 234 240 246 252 257 263 268 273 275 276 278 279 281 283 285 286 287 288 288 288 287 287 286 286 285 285 284 283 282 281 280 279 279 278 276 276 275 275 274 274 274 273 273 273 273 272 272 271 271 270 270 268 267
198 199 194 186 180 176 174 172 174 178 179 178 183 197 214 226 234 240 247 257 266 273 277 280 280 280 280 281 282 284 285 286 286 286 287 287 286 286 286 285 284 284 283 282 281 280 279 279 278 277 275 275 274 274 273 274 274 273 273 273 272 271 271 271 271 270 270 269 268
187 186 180 172 168 164 163 163 167 171 174 178 190 209 222 230 238 245 257 270 278 280 281 281 281 281 282 283 284 285 286 286 285 285 286 285 285 285 285 284 283 283 282 281 281 280 279 278 277 276 275 274 274 273 272 273 273 273 272 272 271 271 270 270 270 270 270 269 268
177 172 167 163 160 158 159 161 166 172 180 193 208 220 229 237 246 257 268 275 279 281 281 282 282 283 284 284 285 285 285 285 285 284 284 284 284 284 284 283 283 282 281 281 280 279 278 277 276 275 275 274 274 273 272 271 271 271 271 271 271 270 270 270 270 270 269 269 269
167 164 160 158 158 158 160 164 170 179 192 206 218 227 236 246 258 267 273 276 277 279 280 282 283 283 284 285 284 284 284 284 283 283 283 283 283 283 282 283 282 281 280 280 279 278 277 277 275 275 274 274 273 272 271 271 270 270 270 270 270 270 270 269 269 269 269 269 269
163 160 158 157 159 162 165 170 179 191 204 216 226 238 253 264 267 269 270 273 275 278 280 281 282 283 283 283 282 282 282 282 282 282 281 281 281 281 281 281 280 280 279 278 277 276 276 276 274 273 272 272 271 271 271 271 270 270 269 269 269 269 269 268 268 268 268 268 268
161 159 158 159 162 165 171 179 191 204 218 236 251 263 270 272 269 266 268 271 274 277 279 280 281 281 281 281 280 280 280 279 279 280 280 279 279 279 279 278 278 278 277 277 276 276 275 275 274 272 272 271 271 271 271 271 270 269 269 268 268 268 268 267 267 267 267 267 267
161 160 160 162 166 169 174 186 203 224 243 258 267 272 273 273 271 271 271 272 274 276 278 279 280 280 280 279 279 279 278 278 278 278 279 279 278 278 277 277 277 277 276 276 276 275 274 273 272 272 271 270 270 270 270 270 269 268 268 267 267 267 267 267 266 266 266 266 265
160 159 162 166 170 175 185 208 234 252 261 266 269 271 273 274 275 274 274 273 275 278 279 280 280 280 280 280 279 279 279 278 278 278 278 278 277 277 277 276 276 276 275 275 275 274 273 272 271 271 270 270 269 269 269 269 268 268 267 267 266 266 266 266 265 265 265 265 265
160 161 164 169 176 190 214 238 254 262 265 267 269 271 273 274 275 275 274 275 276 279 281 282 282 281 281 280 280 280 280 279 279 279 278 278 277 277 277 276 275 275 275 274 273 272 272 271 270 270 269 269 268 268 268 268 267 267 267 267 266 266 266 265 265 265 265 265 265
161 163 168 176 188 211 237 251 259 263 266 268 270 271 273 274 275 275 276 277 278 280 282 283 283 282 281 281 281 280 280 280 280 279 278 278 277 277 276 275 275 274 274 273 272 271 270 269 269 269 268 268 268 267 267 267 267 267 267 267 267 266 266 265 265 265 265 265 265
162 167 179 199 215 232 245 254 259 263 266 268 269 271 273 274 276 276 277 278 280 281 282 283 283 282 281 281 281 281 280 280 280 279 279 278 277 276 276 275 274 274 273 272 271 270 269 268 268 268 268 268 268 267 267 267 266 266 266 266 266 266 266 266 266 266 266 266 266
168 180 199 219 233 242 248 254 258 261 264 266 268 270 272 274 277 278 278 279 279 280 281 281 281 282 282 281 281 281 281 280 280 279 279 278 278 277 276 275 275 274 273 273 272 271 269 268 267 267 267 267 267 267 267 267 266 266 266 266 266 266 266 266 267 267 266 266 267
183 201 219 232 239 244 248 252 255 258 261 264 267 270 272 275 277 278 279 279 280 280 280 280 280 281 281 281 281 281 281 281 280 280 279 279 278 278 277 276 276 275 275 274 273 272 270 269 268 267 266 266 266 267 267 267 267 267 266 266 266 266 267 267 267 267 267 267 267
205 221 233 238 242 244 247 250 252 256 259 263 267 269 272 274 277 279 280 281 281 280 280 280 280 280 280 280 280 280 280 280 280 279 279 279 279 278 278 277 277 276 275 274 273 272 271 270 269 268 267 267 267 267 267 267 267 267 267 266 267 267 267 267 268 268 268 268 268
224 235 240 241 242 244 246 249 251 255 259 263 267 270 272 275 277 280 281 282 281 281 280 281 280 280 280 280 280 280 280 279 279 279 279 278 278 278 277 277 276 276 275 274 273 272 271 271 270 269 269 268 268 267 267 267 267 267 267 267 267 268 268 269 269 269 269 269 269
237 243 244 243 243 244 246 249 252 257 261 265 268 271 275 277 279 280 281 282 282 282 282 282 282 282 282 282 281 281 281 280 280 280 279 279 278 277 277 277 277 276 275 274 274 273 272 271 271 270 269 269 269 268 268 268 267 267 268 269 269 270 270 271 271 270 269 268 268
243 245 245 244 243 245 248 251 255 260 264 267 271 274 276 278 279 280 281 282 283 282 283 283 283 284 284 284 284 283 283 282 281 281 280 279 278 278 277 277 277 276 276 275 274 273 272 272 271 271 270 270 269 269 269 269 269 270 271 271 272 272 272 272 271 270 269 267 266
245 245 243 243 243 246 251 255 260 264 267 271 273 275 277 278 279 280 281 282 282 283 283 285 286 286 286 285 285 285 284 284 282 281 280 280 279 278 277 277 277 276 275 274 273 273 273 272 272 271 271 271 270 270 271 271 272 273 274 274 274 274 274 273 271 270 268 266 265
245 243 242 242 245 249 254 259 263 267 270 274 276 278 278 279 280 281 282 283 283 283 284 286 286 287 286 286 285 285 284 283 282 282 280 279 278 278 278 277 276 275 274 274 274 274 274 274 273 273 273 273 273 273 274 274 275 276 277 277 276 276 274 273 271 270 269 267 266
243 241 240 243 248 253 258 262 266 271 274 278 280 282 283 283 284 284 285 285 285 285 286 286 287 287 287 286 286 285 284 283 282 282 281 279 279 278 278 278 277 276 275 275 274 274 274 274 275 275 275 276 276 277 277 278 278 278 278 278 277 276 274 272 271 269 269 268 267
242 240 241 245 251 256 261 266 270 275 279 282 285 287 288 288 289 288 288 288 287 287 287 287 287 288 287 287 285 284 283 282 282 281 281 280 279 279 278 278 277 277 276 275 274 274 273 273 274 275 276 277 278 278 278 277 277 277 276 276 275 274 273 272 270 269 268 267 267
241 240 243 248 254 259 264 269 275 280 284 287 289 291 291 292 292 292 291 290 290 289 289 288 289 288 287 285 285 284 282 281 281 281 281 281 280 280 280 279 279 278 277 276 276 275 275 274 275 275 277 278 279 279 278 277 277 276 275 273 272 271 271 270 269 269 268 267 266
240 242 247 252 258 263 268 275 281 285 289 291 292 293 294 295 295 294 293 293 292 291 290 290 289 288 286 285 284 283 282 282 282 282 282 282 282 281 281 281 280 279 278 277 277 277 277 277 278 279 280 281 281 281 280 279 278 276 274 272 271 270 269 269 269 269 269 268 267
241 245 250 256 261 267 273 280 285 289 291 293 294 295 296 296 296 295 295 294 294 293 293 291 291 289 288 287 286 285 284 284 284 284 284 283 283 282 282 282 281 280 280 279 279 280 280 281 282 283 284 285 284 282 281 280 278 276 274 272 270 269 269 268 269 269 269 269 268
244 248 253 258 264 270 277 283 287 290 292 294 295 296 296 296 296 296 296 296 296 295 295 294 293 292 290 289 288 287 287 286 286 286 285 285 284 284 283 283 283 282 282 282 282 283 284 286 287 288 287 286 285 283 281 279 277 275 273 271 270 270 269 269 269 269 269 269 269
248 252 257 262 267 273 279 284 287 290 293 295 296 296 296 296 296 297 297 297 297 297 296 295 294 293 291 289 289 288 288 288 287 287 287 287 286 286 285 285 285 285 285 285 286 286 287 288 289 290 289 287 284 281 279 276 275 273 272 271 270 270 269 269 269 269 269 269 269
252 256 260 265 270 276 280 285 289 292 294 295 296 296 297 297 298 298 298 298 298 297 297 295 294 292 291 290 290 290 289 290 290 289 289 289 288 288 288 287 287 287 287 288 288 289 290 290 290 289 287 285 282 280 277 275 274 272 271 270 269 269 269 269 269 269 269 269 268
254 258 263 268 273 279 284 288 291 293 295 296 296 297 298 298 299 299 299 299 299 298 297 296 294 293 293 292 292 292 291 291 291 291 290 290 290 290 289 289 289 289 289 290 290 291 291 290 289 287 285 284 281 279 277 276 274 272 271 270 269 269 269 268 268 268 268 268 268
255 260 266 272 278 284 288 291 294 295 296 296 297 298 299 299 300 300 299 299 298 297 297 296 295 294 294 294 294 293 293 292 292 292 291 291 291 291 291 291 291 291 292 292 291 291 290 289 288 286 285 284 282 280 278 276 274 273 272 270 269 269 268 268 267 267 267 267 266
256 263 270 277 284 289 291 293 295 296 297 297 299 299 300 300 300 300 299 298 298 297 297 296 295 295 294 294 294 294 293 293 293 292 292 292 292 292 293 293 293 293 293 292 291 290 289 288 287 286 285 285 283 282 280 278 275 274 273 271 271 270 269 268 267 267 266 265 265
259 268 276 282 287 290 291 293 295 297 298 299 300 300 300 300 299 299 299 299 299 298 297 296 295 295 295 294 294 294 294 294 294 293 293 294 294 295 294 294 294 293 293 292 291 290 289 288 287 287 286 286 284 283 281 279 277 276 274 273 272 271 270 269 268 267 265 264 263
271 280 285 287 288 289 290 293 296 298 300 301 301 300 300 300 300 300 300 300 299 298 298 297 296 296 296 295 295 295 295 295 295 295 295 296 296 296 296 295 294 293 293 292 291 290 290 289 288 288 287 287 285 284 282 281 279 277 276 274 273 272 271 269 268 267 265 263 262
286 291 291 289 289 290 293 296 298 300 301 301 301 301 300 301 301 301 301 301 300 299 298 298 297 297 297 297 297 296 296 296 296 297 297 297 297 297 296 295 294 294 293 292 291 291 290 289 289 288 288 287 285 284 283 282 280 279 277 276 275 273 272 271 269 267 265 263 261
294 295 295 293 293 294 296 298 300 301 301 301 301 301 302 302 302 302 302 302 301 299 299 298 298 298 298 298 298 298 297 297 297 297 297 298 298 298 297 296 294 294 293 292 292 291 290 289 289 288 288 286 285 284 284 283 281 280 278 278 277 275 273 272 270 267 265 262 260
298 298 298 296 296 297 299 300 300 301 301 302 302 302 303 303 303 302 302 301 300 299 298 298 298 299 299 299 299 299 298 298 298 298 299 299 299 298 297 295 294 294 293 293 292 291 290 290 289 289 288 287 285 284 283 282 281 280 279 279 279 277 275 274 272 270 268 265 262
301 300 298 298 298 299 300 301 301 302 302 302 303 303 303 303 302 302 301 301 300 299 299 299 299 300 300 300 300 300 299 300 300 300 300 300 299 298 296 294 293 293 293 292 292 291 291 290 289 289 289 288 286 285 284 282 281 281 280 279 279 279 279 279 278 277 275 273 268
301 300 299 299 300 301 302 302 302 303 303 303 303 303 303 303 302 302 302 301 301 301 301 300 300 300 301 301 301 301 301 302 302 302 301 300 299 297 296 294 293 293 293 292 292 291 291 290 290 289 289 288 286 285 283 282 281 280 279 279 280 282 285 288 288 286 283 280 276